Station Historical Data
Daily Summary for March 2, 2017 Units:  English    Metric   Both
« Previous Day
Next Day »
Daily Weekly Monthly Yearly Custom
  High: Low: Average:
Temperature: 59.3 °F 39.2 °F 47.5 °F
Dew Point: 42.7 °F 28.0 °F 35.7 °F
Humidity: 79 % 43 % 64 %
Wind Speed: 12.0 mph 0.0 mph 1.3 mph
Wind Gust: 13.0 mph - -
Wind:- - SE
Pressure: 30.43 in 30.28 in -
Precipitation: 0.00 in    
Historical Graphs
 
 
Tabular Data for March 2, 2017
Time Temperature Dew Point Pressure Wind Wind Speed Wind Gust Humidity Rainfall Rate (Hourly) solar
00:04 41.4 °F 34.7 °F 30.43 in ESE 1.0 mph 7.0 mph 77 % 0.00 in 0.00 W/m2
00:09 41.3 °F 34.3 °F 30.43 in ESE 5.0 mph 5.0 mph 76 % 0.00 in 0.00 W/m2
00:14 41.3 °F 34.3 °F 30.43 in ESE 5.0 mph 7.0 mph 76 % 0.00 in 0.00 W/m2
00:19 41.2 °F 34.5 °F 30.43 in East 1.0 mph 6.0 mph 77 % 0.00 in 0.00 W/m2
00:24 41.1 °F 34.1 °F 30.43 in ESE 2.0 mph 6.0 mph 76 % 0.00 in 0.00 W/m2
00:29 41.0 °F 34.0 °F 30.43 in ESE 1.0 mph 5.0 mph 76 % 0.00 in 0.00 W/m2
00:34 41.0 °F 34.0 °F 30.43 in Calm   5.0 mph 76 % 0.00 in 0.00 W/m2
00:39 40.9 °F 33.6 °F 30.43 in ESE 1.0 mph 5.0 mph 75 % 0.00 in 0.00 W/m2
00:44 40.8 °F 33.8 °F 30.43 in Calm   6.0 mph 76 % 0.00 in 0.00 W/m2
00:49 40.8 °F 33.5 °F 30.43 in Calm   7.0 mph 75 % 0.00 in 0.00 W/m2
00:54 40.7 °F 33.7 °F 30.43 in ESE 2.0 mph 5.0 mph 76 % 0.00 in 0.00 W/m2
00:59 40.6 °F 33.6 °F 30.43 in ESE 6.0 mph 6.0 mph 76 % 0.00 in 0.00 W/m2
01:04 40.6 °F 33.6 °F 30.43 in ESE 1.0 mph 7.0 mph 76 % 0.00 in 0.00 W/m2
01:09 40.5 °F 33.2 °F 30.43 in ESE 1.0 mph 5.0 mph 75 % 0.00 in 0.00 W/m2
01:14 40.4 °F 33.1 °F 30.43 in Calm   7.0 mph 75 % 0.00 in 0.00 W/m2
01:19 40.4 °F 33.1 °F 30.43 in ESE 2.0 mph 6.0 mph 75 % 0.00 in 0.00 W/m2
01:24 40.3 °F 32.7 °F 30.43 in ESE 1.0 mph 6.0 mph 74 % 0.00 in 0.00 W/m2
01:30 40.3 °F 32.3 °F 30.43 in ESE 4.0 mph 5.0 mph 73 % 0.00 in 0.00 W/m2
01:35 40.3 °F 32.7 °F 30.43 in ESE 1.0 mph 7.0 mph 74 % 0.00 in 0.00 W/m2
01:40 40.2 °F 32.6 °F 30.43 in Calm   5.0 mph 74 % 0.00 in 0.00 W/m2
01:44 40.2 °F 32.2 °F 30.42 in Calm   5.0 mph 73 % 0.00 in 0.00 W/m2
01:49 40.2 °F 32.2 °F 30.42 in ESE 1.0 mph 5.0 mph 73 % 0.00 in 0.00 W/m2
01:54 40.2 °F 32.2 °F 30.42 in ESE 4.0 mph 7.0 mph 73 % 0.00 in 0.00 W/m2
02:00 40.1 °F 31.8 °F 30.42 in ESE 1.0 mph 5.0 mph 72 % 0.00 in 0.00 W/m2
02:05 40.1 °F 32.2 °F 30.42 in ESE 2.0 mph 6.0 mph 73 % 0.00 in 0.00 W/m2
02:10 40.0 °F 32.1 °F 30.42 in Calm   6.0 mph 73 % 0.00 in 0.00 W/m2
02:15 39.9 °F 31.6 °F 30.42 in ESE 4.0 mph 5.0 mph 72 % 0.00 in 0.00 W/m2
02:20 39.9 °F 31.6 °F 30.42 in East 2.0 mph 7.0 mph 72 % 0.00 in 0.00 W/m2
02:25 39.8 °F 31.5 °F 30.42 in East 4.0 mph 8.0 mph 72 % 0.00 in 0.00 W/m2
02:30 39.8 °F 31.9 °F 30.42 in East 5.0 mph 8.0 mph 73 % 0.00 in 0.00 W/m2
02:35 39.8 °F 31.5 °F 30.42 in East 4.0 mph 6.0 mph 72 % 0.00 in 0.00 W/m2
02:40 39.7 °F 31.1 °F 30.42 in Calm   9.0 mph 71 % 0.00 in 0.00 W/m2
02:45 39.7 °F 30.7 °F 30.42 in East 2.0 mph 8.0 mph 70 % 0.00 in 0.00 W/m2
02:50 39.7 °F 31.1 °F 30.42 in Calm   7.0 mph 71 % 0.00 in 0.00 W/m2
02:55 39.7 °F 30.7 °F 30.42 in East 4.0 mph 6.0 mph 70 % 0.00 in 0.00 W/m2
03:00 39.7 °F 30.7 °F 30.42 in Calm   7.0 mph 70 % 0.00 in 0.00 W/m2
03:05 39.7 °F 30.4 °F 30.41 in Calm   8.0 mph 69 % 0.00 in 0.00 W/m2
03:10 39.7 °F 30.4 °F 30.41 in East 2.0 mph 5.0 mph 69 % 0.00 in 0.00 W/m2
03:15 39.7 °F 30.7 °F 30.41 in ESE 2.0 mph 7.0 mph 70 % 0.00 in 0.00 W/m2
03:20 39.7 °F 30.7 °F 30.41 in East 4.0 mph 5.0 mph 70 % 0.00 in 0.00 W/m2
03:25 39.7 °F 30.7 °F 30.41 in East 1.0 mph 6.0 mph 70 % 0.00 in 0.00 W/m2
03:30 39.7 °F 30.7 °F 30.42 in East 8.0 mph 8.0 mph 70 % 0.00 in 0.00 W/m2
03:35 39.6 °F 31.0 °F 30.42 in East 1.0 mph 6.0 mph 71 % 0.00 in 0.00 W/m2
03:40 39.6 °F 30.6 °F 30.41 in Calm   7.0 mph 70 % 0.00 in 0.00 W/m2
03:45 39.5 °F 30.5 °F 30.41 in ESE 1.0 mph 7.0 mph 70 % 0.00 in 0.00 W/m2
03:50 39.5 °F 30.5 °F 30.41 in ESE 5.0 mph 8.0 mph 70 % 0.00 in 0.00 W/m2
03:55 39.5 °F 30.9 °F 30.41 in Calm   6.0 mph 71 % 0.00 in 0.00 W/m2
04:00 39.4 °F 30.4 °F 30.41 in Calm   12.0 mph 70 % 0.00 in 0.00 W/m2
04:05 39.4 °F 30.4 °F 30.41 in East 4.0 mph 6.0 mph 70 % 0.00 in 0.00 W/m2
04:10 39.3 °F 30.4 °F 30.41 in Calm   6.0 mph 70 % 0.00 in 0.00 W/m2
04:15 39.3 °F 30.4 °F 30.41 in East 4.0 mph 5.0 mph 70 % 0.00 in 0.00 W/m2
04:20 39.2 °F 30.2 °F 30.41 in East 2.0 mph 5.0 mph 70 % 0.00 in 0.00 W/m2
04:25 39.2 °F 29.9 °F 30.41 in ESE 1.0 mph 7.0 mph 69 % 0.00 in 0.00 W/m2
04:30 39.2 °F 29.9 °F 30.41 in Calm   6.0 mph 69 % 0.00 in 0.00 W/m2
04:35 39.2 °F 29.9 °F 30.41 in Calm   7.0 mph 69 % 0.00 in 0.00 W/m2
04:40 39.2 °F 29.9 °F 30.41 in ESE 1.0 mph 6.0 mph 69 % 0.00 in 0.00 W/m2
04:45 39.2 °F 29.9 °F 30.41 in Calm   6.0 mph 69 % 0.00 in 0.00 W/m2
04:50 39.2 °F 29.9 °F 30.41 in Calm   13.0 mph 69 % 0.00 in 0.00 W/m2
04:55 39.2 °F 29.2 °F 30.41 in ESE 1.0 mph 6.0 mph 67 % 0.00 in 0.00 W/m2
05:00 39.3 °F 30.0 °F 30.41 in Calm   11.0 mph 69 % 0.00 in 0.00 W/m2
05:05 39.3 °F 29.3 °F 30.41 in East 7.0 mph 7.0 mph 67 % 0.00 in 0.00 W/m2
05:10 39.3 °F 29.3 °F 30.41 in East 2.0 mph 7.0 mph 67 % 0.00 in 0.00 W/m2
05:15 39.3 °F 29.3 °F 30.41 in ESE 2.0 mph 8.0 mph 67 % 0.00 in 0.00 W/m2
05:20 39.3 °F 29.3 °F 30.41 in Calm   7.0 mph 67 % 0.00 in 0.00 W/m2
05:25 39.3 °F 28.9 °F 30.41 in ESE 2.0 mph 7.0 mph 66 % 0.00 in 0.00 W/m2
05:30 39.3 °F 28.9 °F 30.41 in Calm   7.0 mph 66 % 0.00 in 0.00 W/m2
05:35 39.3 °F 29.3 °F 30.41 in ESE 1.0 mph 8.0 mph 67 % 0.00 in 0.00 W/m2
05:40 39.3 °F 28.9 °F 30.41 in East 1.0 mph 8.0 mph 66 % 0.00 in 0.00 W/m2
05:45 39.3 °F 28.9 °F 30.41 in East 1.0 mph 9.0 mph 66 % 0.00 in 0.00 W/m2
05:50 39.3 °F 28.9 °F 30.41 in ESE 2.0 mph 11.0 mph 66 % 0.00 in 0.00 W/m2
05:55 39.3 °F 28.9 °F 30.41 in East 4.0 mph 6.0 mph 66 % 0.00 in 0.00 W/m2
06:00 39.3 °F 28.9 °F 30.41 in ESE 2.0 mph 7.0 mph 66 % 0.00 in 0.00 W/m2
06:05 39.3 °F 28.5 °F 30.41 in ESE 2.0 mph 6.0 mph 65 % 0.00 in 0.00 W/m2
06:10 39.3 °F 28.5 °F 30.41 in ESE 4.0 mph 8.0 mph 65 % 0.00 in 0.00 W/m2
06:15 39.3 °F 28.5 °F 30.41 in ESE 1.0 mph 12.0 mph 65 % 0.00 in 0.00 W/m2
06:20 39.3 °F 28.9 °F 30.41 in ESE 1.0 mph 11.0 mph 66 % 0.00 in 0.00 W/m2
06:25 39.3 °F 28.5 °F 30.41 in East 1.0 mph 6.0 mph 65 % 0.00 in 0.00 W/m2
06:30 39.3 °F 28.2 °F 30.41 in East 5.0 mph 12.0 mph 64 % 0.00 in 5.00 W/m2
06:35 39.3 °F 28.2 °F 30.41 in Calm   13.0 mph 64 % 0.00 in 7.00 W/m2
06:40 39.4 °F 28.6 °F 30.41 in ESE 1.0 mph 12.0 mph 65 % 0.00 in 9.00 W/m2
06:45 39.3 °F 28.2 °F 30.41 in Calm   12.0 mph 64 % 0.00 in 12.00 W/m2
06:50 39.4 °F 28.6 °F 30.41 in East 2.0 mph 13.0 mph 65 % 0.00 in 16.00 W/m2
06:51 39.4 °F 28.2 °F 30.41 in Calm   13.0 mph 64 % 0.00 in 16.00 W/m2
06:56 39.4 °F 28.2 °F 30.41 in Calm   11.0 mph 64 % 0.00 in 19.00 W/m2
07:01 39.5 °F 28.4 °F 30.41 in ESE 12.0 mph 12.0 mph 64 % 0.00 in 30.00 W/m2
07:06 39.5 °F 28.0 °F 30.41 in ESE 1.0 mph 13.0 mph 63 % 0.00 in 42.00 W/m2
07:11 39.6 °F 28.4 °F 30.41 in Calm   1.0 mph 64 % 0.00 in 54.00 W/m2
07:16 39.6 °F 28.4 °F 30.41 in Calm     64 % 0.00 in 70.00 W/m2
07:21 39.7 °F 28.1 °F 30.41 in East 1.0 mph 5.0 mph 63 % 0.00 in 90.00 W/m2
07:26 39.7 °F 28.5 °F 30.41 in East 1.0 mph 7.0 mph 64 % 0.00 in 109.00 W/m2
07:31 39.8 °F 28.2 °F 30.41 in East 4.0 mph 12.0 mph 63 % 0.00 in 123.00 W/m2
07:36 39.9 °F 28.3 °F 30.41 in East 1.0 mph 4.0 mph 63 % 0.00 in 149.00 W/m2
07:41 40.1 °F 28.5 °F 30.42 in Calm   1.0 mph 63 % 0.00 in 165.00 W/m2
07:46 40.2 °F 28.2 °F 30.42 in ESE 5.0 mph 5.0 mph 62 % 0.00 in 190.00 W/m2
07:51 40.4 °F 28.8 °F 30.42 in ESE 1.0 mph 1.0 mph 63 % 0.00 in 211.00 W/m2
07:56 40.6 °F 29.0 °F 30.42 in ESE 2.0 mph 5.0 mph 63 % 0.00 in 236.00 W/m2
08:01 40.7 °F 29.1 °F 30.42 in East 2.0 mph 2.0 mph 63 % 0.00 in 253.00 W/m2
08:06 40.9 °F 29.3 °F 30.42 in ESE 4.0 mph 4.0 mph 63 % 0.00 in 279.00 W/m2
08:11 41.1 °F 29.9 °F 30.43 in Calm     64 % 0.00 in 299.00 W/m2
08:16 41.3 °F 30.1 °F 30.43 in Calm   4.0 mph 64 % 0.00 in 318.00 W/m2
08:21 41.5 °F 30.6 °F 30.43 in Calm   2.0 mph 65 % 0.00 in 338.00 W/m2
08:26 41.7 °F 30.8 °F 30.43 in ESE 1.0 mph 2.0 mph 65 % 0.00 in 355.00 W/m2
08:31 41.9 °F 31.4 °F 30.43 in ESE 1.0 mph 1.0 mph 66 % 0.00 in 373.00 W/m2
08:36 42.2 °F 31.7 °F 30.43 in ESE 1.0 mph 1.0 mph 66 % 0.00 in 390.00 W/m2
08:41 42.4 °F 30.7 °F 30.43 in ESE 1.0 mph 1.0 mph 63 % 0.00 in 406.00 W/m2
08:46 42.7 °F 31.0 °F 30.43 in Calm   1.0 mph 63 % 0.00 in 422.00 W/m2
08:51 43.1 °F 31.0 °F 30.43 in Calm     62 % 0.00 in 434.00 W/m2
08:56 43.6 °F 32.2 °F 30.43 in ESE 1.0 mph 5.0 mph 64 % 0.00 in 452.00 W/m2
09:01 44.1 °F 32.3 °F 30.43 in ESE 1.0 mph 1.0 mph 63 % 0.00 in 466.00 W/m2
09:06 44.4 °F 31.8 °F 30.43 in ESE 1.0 mph 1.0 mph 61 % 0.00 in 482.00 W/m2
09:11 44.7 °F 31.7 °F 30.43 in ESE 1.0 mph 1.0 mph 60 % 0.00 in 497.00 W/m2
09:16 45.2 °F 31.7 °F 30.43 in Calm   1.0 mph 59 % 0.00 in 510.00 W/m2
09:21 45.6 °F 30.8 °F 30.43 in ESE 1.0 mph 2.0 mph 56 % 0.00 in 524.00 W/m2
09:26 46.0 °F 30.3 °F 30.43 in ESE 2.0 mph 4.0 mph 54 % 0.00 in 536.00 W/m2
09:31 46.4 °F 30.2 °F 30.43 in Calm   2.0 mph 53 % 0.00 in 550.00 W/m2
09:36 46.8 °F 31.0 °F 30.43 in Calm     54 % 0.00 in 563.00 W/m2
09:41 47.2 °F 32.3 °F 30.42 in Calm   1.0 mph 56 % 0.00 in 575.00 W/m2
09:46 47.6 °F 32.2 °F 30.42 in ESE 1.0 mph 1.0 mph 55 % 0.00 in 589.00 W/m2
09:51 47.9 °F 32.5 °F 30.42 in Calm     55 % 0.00 in 601.00 W/m2
09:56 48.4 °F 33.0 °F 30.42 in Calm   2.0 mph 55 % 0.00 in 613.00 W/m2
10:01 48.8 °F 35.1 °F 30.42 in Calm     59 % 0.00 in 626.00 W/m2
10:06 49.6 °F 33.7 °F 30.42 in Calm   1.0 mph 54 % 0.00 in 635.00 W/m2
10:11 50.1 °F 35.0 °F 30.42 in Calm     56 % 0.00 in 649.00 W/m2
10:16 50.5 °F 35.8 °F 30.42 in ESE 1.0 mph 1.0 mph 57 % 0.00 in 659.00 W/m2
10:21 50.8 °F 34.8 °F 30.42 in Calm     54 % 0.00 in 668.00 W/m2
10:26 51.2 °F 35.1 °F 30.41 in Calm     54 % 0.00 in 675.00 W/m2
10:31 51.6 °F 36.0 °F 30.41 in ESE 1.0 mph 4.0 mph 55 % 0.00 in 687.00 W/m2
10:36 51.9 °F 34.8 °F 30.41 in ESE 1.0 mph 2.0 mph 52 % 0.00 in 696.00 W/m2
10:41 52.4 °F 35.8 °F 30.41 in Calm     53 % 0.00 in 705.00 W/m2
10:46 52.8 °F 34.2 °F 30.41 in Calm     49 % 0.00 in 710.00 W/m2
10:51 53.5 °F 35.8 °F 30.41 in Calm     51 % 0.00 in 717.00 W/m2
10:56 54.0 °F 36.8 °F 30.41 in ESE 1.0 mph 4.0 mph 52 % 0.00 in 724.00 W/m2
11:01 54.4 °F 36.7 °F 30.41 in Calm   2.0 mph 51 % 0.00 in 728.00 W/m2
11:06 54.8 °F 36.0 °F 30.40 in ESE 1.0 mph 2.0 mph 49 % 0.00 in 733.00 W/m2
11:12 55.0 °F 37.7 °F 30.40 in ESE 1.0 mph 2.0 mph 52 % 0.00 in 738.00 W/m2
11:17 55.2 °F 36.9 °F 30.40 in ESE 1.0 mph 2.0 mph 50 % 0.00 in 745.00 W/m2
11:22 55.4 °F 37.1 °F 30.40 in ESE 1.0 mph 5.0 mph 50 % 0.00 in 752.00 W/m2
11:27 55.5 °F 37.2 °F 30.40 in NNE 2.0 mph 5.0 mph 50 % 0.00 in 752.00 W/m2
11:32 55.6 °F 37.3 °F 30.40 in NNW 3.0 mph 4.0 mph 50 % 0.00 in 756.00 W/m2
11:37 55.7 °F 37.4 °F 30.40 in NW 2.0 mph 3.0 mph 50 % 0.00 in 758.00 W/m2
11:42 55.9 °F 37.5 °F 30.40 in NW 2.0 mph 4.0 mph 50 % 0.00 in 761.00 W/m2
11:47 56.0 °F 38.2 °F 30.40 in NW 2.0 mph 3.0 mph 51 % 0.00 in 765.00 W/m2
11:52 56.2 °F 37.8 °F 30.40 in WNW 2.0 mph 2.0 mph 50 % 0.00 in 766.00 W/m2
11:53 56.2 °F 37.3 °F 30.40 in Calm   4.0 mph 49 % 0.00 in 766.00 W/m2
11:58 56.3 °F 37.4 °F 30.39 in Calm   2.0 mph 49 % 0.00 in 766.00 W/m2
12:03 56.4 °F 37.5 °F 30.39 in NW 1.0 mph 4.0 mph 49 % 0.00 in 772.00 W/m2
12:08 56.6 °F 37.2 °F 30.39 in Calm   6.0 mph 48 % 0.00 in 772.00 W/m2
12:13 56.8 °F 37.3 °F 30.39 in NW 2.0 mph 4.0 mph 48 % 0.00 in 772.00 W/m2
12:18 57.0 °F 37.5 °F 30.38 in Calm   2.0 mph 48 % 0.00 in 772.00 W/m2
12:23 57.1 °F 37.6 °F 30.38 in Calm   1.0 mph 48 % 0.00 in 772.00 W/m2
12:28 57.4 °F 36.8 °F 30.38 in Calm     46 % 0.00 in 768.00 W/m2
12:33 57.6 °F 38.1 °F 30.38 in WSW 3.0 mph 7.0 mph 48 % 0.00 in 766.00 W/m2
12:38 57.8 °F 36.6 °F 30.37 in West 1.0 mph 3.0 mph 45 % 0.00 in 765.00 W/m2
12:43 57.9 °F 36.1 °F 30.37 in West 1.0 mph 5.0 mph 44 % 0.00 in 763.00 W/m2
12:48 58.0 °F 36.8 °F 30.37 in Calm   2.0 mph 45 % 0.00 in 759.00 W/m2
12:53 58.2 °F 36.4 °F 30.37 in Calm   5.0 mph 44 % 0.00 in 758.00 W/m2
12:58 58.3 °F 37.1 °F 30.36 in WNW 2.0 mph 3.0 mph 45 % 0.00 in 751.00 W/m2
13:03 58.4 °F 36.6 °F 30.36 in NW 1.0 mph 4.0 mph 44 % 0.00 in 747.00 W/m2
13:08 58.4 °F 36.0 °F 30.36 in NW 1.0 mph 5.0 mph 43 % 0.00 in 744.00 W/m2
13:13 58.5 °F 38.9 °F 30.36 in West 1.0 mph 4.0 mph 48 % 0.00 in 738.00 W/m2
13:14 58.6 °F 39.0 °F 30.36 in West 2.0 mph 4.0 mph 48 % 0.00 in 735.00 W/m2
13:19 58.7 °F 37.4 °F 30.36 in Calm   8.0 mph 45 % 0.00 in 729.00 W/m2
13:24 58.9 °F 37.0 °F 30.36 in Calm   6.0 mph 44 % 0.00 in 726.00 W/m2
13:29 58.9 °F 37.6 °F 30.36 in West 1.0 mph 3.0 mph 45 % 0.00 in 719.00 W/m2
13:34 59.0 °F 38.3 °F 30.35 in WSW 3.0 mph 9.0 mph 46 % 0.00 in 712.00 W/m2
13:39 59.1 °F 37.8 °F 30.35 in SW 5.0 mph 8.0 mph 45 % 0.00 in 703.00 W/m2
13:44 59.2 °F 38.5 °F 30.35 in Calm   2.0 mph 46 % 0.00 in 696.00 W/m2
13:49 59.3 °F 37.4 °F 30.35 in Calm   1.0 mph 44 % 0.00 in 687.00 W/m2
13:54 59.3 °F 36.8 °F 30.35 in Calm   2.0 mph 43 % 0.00 in 680.00 W/m2
13:59 59.2 °F 37.9 °F 30.34 in Calm   2.0 mph 45 % 0.00 in 668.00 W/m2
14:04 59.1 °F 38.4 °F 30.34 in WSW 4.0 mph 8.0 mph 46 % 0.00 in 659.00 W/m2
14:09 59.1 °F 39.5 °F 30.34 in WSW 1.0 mph 1.0 mph 48 % 0.00 in 650.00 W/m2
14:14 59.1 °F 38.9 °F 30.34 in WSW 1.0 mph 2.0 mph 47 % 0.00 in 642.00 W/m2
14:19 59.1 °F 40.0 °F 30.34 in Calm   7.0 mph 49 % 0.00 in 631.00 W/m2
14:24 59.0 °F 39.4 °F 30.33 in Calm   6.0 mph 48 % 0.00 in 621.00 W/m2
14:29 58.9 °F 38.7 °F 30.33 in Calm   1.0 mph 47 % 0.00 in 608.00 W/m2
14:34 58.9 °F 39.3 °F 30.33 in West 3.0 mph 5.0 mph 48 % 0.00 in 596.00 W/m2
14:39 58.9 °F 40.3 °F 30.33 in West 1.0 mph 1.0 mph 50 % 0.00 in 582.00 W/m2
14:44 58.8 °F 40.2 °F 30.33 in West 5.0 mph 6.0 mph 50 % 0.00 in 571.00 W/m2
14:49 58.8 °F 40.7 °F 30.33 in Calm   7.0 mph 51 % 0.00 in 557.00 W/m2
14:54 58.9 °F 41.8 °F 30.33 in Calm     53 % 0.00 in 545.00 W/m2
14:59 58.8 °F 42.7 °F 30.32 in West 4.0 mph 7.0 mph 55 % 0.00 in 534.00 W/m2
15:04 58.8 °F 40.7 °F 30.32 in SW 5.0 mph 9.0 mph 51 % 0.00 in 520.00 W/m2
15:09 58.7 °F 40.6 °F 30.32 in Calm   3.0 mph 51 % 0.00 in 504.00 W/m2
15:14 58.7 °F 40.6 °F 30.32 in Calm   4.0 mph 51 % 0.00 in 494.00 W/m2
15:19 58.6 °F 41.0 °F 30.32 in Calm   6.0 mph 52 % 0.00 in 476.00 W/m2
15:24 58.6 °F 40.5 °F 30.32 in Calm   2.0 mph 51 % 0.00 in 462.00 W/m2
15:29 58.5 °F 40.5 °F 30.32 in SSW 5.0 mph 7.0 mph 51 % 0.00 in 450.00 W/m2
15:34 58.4 °F 40.4 °F 30.32 in South 1.0 mph 7.0 mph 51 % 0.00 in 434.00 W/m2
15:39 58.4 °F 41.3 °F 30.32 in Calm   7.0 mph 53 % 0.00 in 411.00 W/m2
15:44 58.3 °F 40.8 °F 30.32 in Calm   6.0 mph 52 % 0.00 in 396.00 W/m2
15:49 58.2 °F 41.7 °F 30.32 in Calm   7.0 mph 54 % 0.00 in 387.00 W/m2
15:54 58.1 °F 42.0 °F 30.32 in West 1.0 mph 2.0 mph 55 % 0.00 in 373.00 W/m2
15:59 58.0 °F 41.5 °F 30.31 in West 1.0 mph 1.0 mph 54 % 0.00 in 355.00 W/m2
16:04 57.9 °F 41.8 °F 30.31 in Calm   9.0 mph 55 % 0.00 in 338.00 W/m2
16:09 57.8 °F 41.8 °F 30.31 in Calm   8.0 mph 55 % 0.00 in 322.00 W/m2
16:14 57.6 °F 42.0 °F 30.31 in SW 2.0 mph 9.0 mph 56 % 0.00 in 306.00 W/m2
16:19 57.5 °F 41.9 °F 30.31 in Calm   5.0 mph 56 % 0.00 in 287.00 W/m2
16:25 57.3 °F 42.2 °F 30.31 in Calm   6.0 mph 57 % 0.00 in 271.00 W/m2
16:30 57.1 °F 42.0 °F 30.31 in Calm   2.0 mph 57 % 0.00 in 253.00 W/m2
16:35 56.9 °F 40.9 °F 30.31 in Calm   1.0 mph 55 % 0.00 in 236.00 W/m2
16:40 56.8 °F 42.2 °F 30.31 in West 1.0 mph 1.0 mph 58 % 0.00 in 214.00 W/m2
16:45 56.6 °F 42.0 °F 30.30 in West 1.0 mph 1.0 mph 58 % 0.00 in 192.00 W/m2
16:50 56.4 °F 41.4 °F 30.30 in Calm   1.0 mph 57 % 0.00 in 171.00 W/m2
16:55 56.2 °F 41.6 °F 30.30 in WSW 1.0 mph 2.0 mph 58 % 0.00 in 148.00 W/m2
17:00 56.0 °F 41.5 °F 30.30 in Calm   1.0 mph 58 % 0.00 in 127.00 W/m2
17:05 55.8 °F 40.8 °F 30.30 in Calm     57 % 0.00 in 109.00 W/m2
17:10 55.7 °F 41.2 °F 30.30 in Calm     58 % 0.00 in 90.00 W/m2
17:15 55.5 °F 41.9 °F 30.30 in Calm     60 % 0.00 in 72.00 W/m2
17:20 55.3 °F 42.1 °F 30.30 in Calm     61 % 0.00 in 54.00 W/m2
17:25 55.1 °F 41.9 °F 30.30 in Calm     61 % 0.00 in 42.00 W/m2
17:30 54.8 °F 42.0 °F 30.30 in Calm     62 % 0.00 in 30.00 W/m2
17:35 54.4 °F 41.7 °F 30.30 in Calm     62 % 0.00 in 21.00 W/m2
17:40 54.0 °F 42.5 °F 30.30 in Calm     65 % 0.00 in 18.00 W/m2
17:45 53.5 °F 42.0 °F 30.30 in Calm     65 % 0.00 in 14.00 W/m2
17:50 53.0 °F 42.0 °F 30.30 in Calm     66 % 0.00 in 11.00 W/m2
17:55 52.4 °F 41.8 °F 30.30 in Calm     67 % 0.00 in 7.00 W/m2
18:00 52.0 °F 42.2 °F 30.30 in Calm     69 % 0.00 in 5.00 W/m2
18:05 51.5 °F 42.0 °F 30.30 in Calm     70 % 0.00 in 0.00 W/m2
18:10 51.0 °F 41.9 °F 30.30 in Calm     71 % 0.00 in 0.00 W/m2
18:15 50.6 °F 41.9 °F 30.30 in Calm     72 % 0.00 in 0.00 W/m2
18:20 50.1 °F 41.4 °F 30.29 in Calm     72 % 0.00 in 0.00 W/m2
18:21 49.9 °F 41.2 °F 30.29 in Calm     72 % 0.00 in 0.00 W/m2
18:26 49.5 °F 41.2 °F 30.30 in Calm     73 % 0.00 in 0.00 W/m2
18:31 49.1 °F 41.2 °F 30.29 in Calm     74 % 0.00 in 0.00 W/m2
18:37 48.7 °F 40.5 °F 30.29 in Calm     73 % 0.00 in 0.00 W/m2
18:41 48.5 °F 40.6 °F 30.30 in Calm     74 % 0.00 in 0.00 W/m2
18:47 48.2 °F 40.3 °F 30.30 in Calm     74 % 0.00 in 0.00 W/m2
18:52 48.0 °F 40.1 °F 30.30 in Calm     74 % 0.00 in 0.00 W/m2
18:57 47.8 °F 40.3 °F 30.30 in Calm     75 % 0.00 in 0.00 W/m2
19:02 47.7 °F 40.2 °F 30.30 in Calm     75 % 0.00 in 0.00 W/m2
19:07 47.5 °F 40.0 °F 30.30 in Calm     75 % 0.00 in 0.00 W/m2
19:12 47.4 °F 40.2 °F 30.30 in Calm     76 % 0.00 in 0.00 W/m2
19:17 47.3 °F 40.1 °F 30.30 in Calm     76 % 0.00 in 0.00 W/m2
19:22 47.2 °F 40.0 °F 30.30 in Calm     76 % 0.00 in 0.00 W/m2
19:27 47.1 °F 39.9 °F 30.30 in Calm     76 % 0.00 in 0.00 W/m2
19:32 47.0 °F 39.8 °F 30.30 in Calm     76 % 0.00 in 0.00 W/m2
19:37 46.9 °F 39.7 °F 30.30 in Calm     76 % 0.00 in 0.00 W/m2
19:42 46.9 °F 40.1 °F 30.30 in Calm     77 % 0.00 in 0.00 W/m2
19:47 46.9 °F 40.1 °F 30.30 in Calm     77 % 0.00 in 0.00 W/m2
19:52 46.8 °F 40.0 °F 30.30 in Calm     77 % 0.00 in 0.00 W/m2
19:57 46.7 °F 39.9 °F 30.30 in Calm     77 % 0.00 in 0.00 W/m2
20:02 46.5 °F 39.7 °F 30.30 in ESE 1.0 mph 1.0 mph 77 % 0.00 in 0.00 W/m2
20:07 46.5 °F 39.7 °F 30.30 in ESE 1.0 mph 2.0 mph 77 % 0.00 in 0.00 W/m2
20:08 46.4 °F 39.6 °F 30.30 in ESE 1.0 mph 2.0 mph 77 % 0.00 in 0.00 W/m2
20:13 46.2 °F 39.7 °F 30.30 in Calm   2.0 mph 78 % 0.00 in 0.00 W/m2
20:18 46.1 °F 39.6 °F 30.30 in East 1.0 mph 4.0 mph 78 % 0.00 in 0.00 W/m2
20:23 46.0 °F 39.5 °F 30.30 in East 4.0 mph 5.0 mph 78 % 0.00 in 0.00 W/m2
20:28 46.0 °F 39.9 °F 30.30 in East 2.0 mph 5.0 mph 79 % 0.00 in 0.00 W/m2
20:33 46.0 °F 39.9 °F 30.30 in Calm   4.0 mph 79 % 0.00 in 0.00 W/m2
20:38 45.9 °F 39.8 °F 30.31 in East 3.0 mph 4.0 mph 79 % 0.00 in 0.00 W/m2
20:43 45.9 °F 39.8 °F 30.31 in Calm   7.0 mph 79 % 0.00 in 0.00 W/m2
20:48 45.9 °F 39.8 °F 30.30 in Calm   7.0 mph 79 % 0.00 in 0.00 W/m2
20:53 45.9 °F 39.8 °F 30.31 in Calm   9.0 mph 79 % 0.00 in 0.00 W/m2
20:58 46.0 °F 39.9 °F 30.31 in ESE 2.0 mph 6.0 mph 79 % 0.00 in 0.00 W/m2
21:03 46.0 °F 39.9 °F 30.31 in East 2.0 mph 8.0 mph 79 % 0.00 in 0.00 W/m2
21:08 46.0 °F 39.9 °F 30.30 in East 2.0 mph 7.0 mph 79 % 0.00 in 0.00 W/m2
21:13 46.0 °F 39.9 °F 30.30 in Calm   7.0 mph 79 % 0.00 in 0.00 W/m2
21:15 46.0 °F 39.9 °F 30.30 in East 1.0 mph 11.0 mph 79 % 0.00 in 0.00 W/m2
21:20 46.0 °F 39.9 °F 30.31 in Calm   7.0 mph 79 % 0.00 in 0.00 W/m2
21:25 46.0 °F 39.9 °F 30.31 in Calm   6.0 mph 79 % 0.00 in 0.00 W/m2
21:30 46.0 °F 39.5 °F 30.31 in East 7.0 mph 8.0 mph 78 % 0.00 in 0.00 W/m2
21:35 46.0 °F 39.5 °F 30.31 in Calm   8.0 mph 78 % 0.00 in 0.00 W/m2
21:40 46.0 °F 39.2 °F 30.31 in Calm   6.0 mph 77 % 0.00 in 0.00 W/m2
21:45 46.1 °F 39.3 °F 30.31 in East 4.0 mph 9.0 mph 77 % 0.00 in 0.00 W/m2
21:46 46.1 °F 39.3 °F 30.31 in East 1.0 mph 9.0 mph 77 % 0.00 in 0.00 W/m2
21:51 46.1 °F 39.3 °F 30.30 in East 2.0 mph 6.0 mph 77 % 0.00 in 0.00 W/m2
21:56 46.1 °F 39.3 °F 30.30 in East 7.0 mph 11.0 mph 77 % 0.00 in 0.00 W/m2
22:01 46.1 °F 39.0 °F 30.31 in East 4.0 mph 4.0 mph 76 % 0.00 in 0.00 W/m2
22:06 46.1 °F 39.0 °F 30.30 in Calm   11.0 mph 76 % 0.00 in 0.00 W/m2
22:11 46.1 °F 39.0 °F 30.30 in East 1.0 mph 1.0 mph 76 % 0.00 in 0.00 W/m2
22:16 46.1 °F 38.6 °F 30.30 in East 1.0 mph 1.0 mph 75 % 0.00 in 0.00 W/m2
22:21 46.1 °F 39.0 °F 30.30 in ESE 2.0 mph 9.0 mph 76 % 0.00 in 0.00 W/m2
22:26 46.1 °F 38.6 °F 30.30 in East 4.0 mph 8.0 mph 75 % 0.00 in 0.00 W/m2
22:31 46.1 °F 38.6 °F 30.30 in East 1.0 mph 1.0 mph 75 % 0.00 in 0.00 W/m2
22:36 46.0 °F 38.5 °F 30.30 in East 1.0 mph 1.0 mph 75 % 0.00 in 0.00 W/m2
22:41 46.0 °F 38.5 °F 30.31 in East 5.0 mph 5.0 mph 75 % 0.00 in 0.00 W/m2
22:46 45.9 °F 38.4 °F 30.30 in East 1.0 mph 4.0 mph 75 % 0.00 in 0.00 W/m2
22:51 45.8 °F 38.0 °F 30.30 in Calm     74 % 0.00 in 0.00 W/m2
22:56 45.7 °F 37.9 °F 30.30 in Calm   5.0 mph 74 % 0.00 in 0.00 W/m2
23:01 45.7 °F 38.2 °F 30.30 in ESE 6.0 mph 6.0 mph 75 % 0.00 in 0.00 W/m2
23:06 45.6 °F 37.8 °F 30.29 in Calm   7.0 mph 74 % 0.00 in 0.00 W/m2
23:11 45.6 °F 37.8 °F 30.29 in ESE 6.0 mph 6.0 mph 74 % 0.00 in 0.00 W/m2
23:16 45.5 °F 37.7 °F 30.29 in ESE 6.0 mph 9.0 mph 74 % 0.00 in 0.00 W/m2
23:21 45.4 °F 37.6 °F 30.29 in Calm   6.0 mph 74 % 0.00 in 0.00 W/m2
23:26 45.4 °F 37.3 °F 30.29 in Calm   12.0 mph 73 % 0.00 in 0.00 W/m2
23:31 45.4 °F 37.3 °F 30.29 in East 6.0 mph 6.0 mph 73 % 0.00 in 0.00 W/m2
23:36 45.4 °F 36.9 °F 30.28 in East 2.0 mph 8.0 mph 72 % 0.00 in 0.00 W/m2
23:41 45.4 °F 36.9 °F 30.28 in East 2.0 mph 7.0 mph 72 % 0.00 in 0.00 W/m2
23:46 45.4 °F 36.9 °F 30.28 in Calm   7.0 mph 72 % 0.00 in 0.00 W/m2
23:51 45.4 °F 36.6 °F 30.28 in East 2.0 mph 7.0 mph 71 % 0.00 in 0.00 W/m2
23:56 45.5 °F 36.7 °F 30.28 in East 6.0 mph 13.0 mph 71 % 0.00 in 0.00 W/m2
Juneau County Weather
Compliments of Weather Underground - 4.5 mb
 WU-history PHP script courtesy of   Juneau County Weather.
powered by Cumulus v1.9.3 (1059)
Ambient Weather VWS v14.00
Top Contact Website Map Copyright © 2007 - 2018 Foresthillweather.com Never base important decisions on this or any weather information obtained from the Internet